Regional Weather Roundup
Issued by NWS Bismarck, ND

Home | Current Version | Previous Version | Text Only | Print | Product List | Glossary On
Versions: 1 2 3 4 5 6 7 8 9 10 11 12 13 14 15 16 17 18 19 20 21 22 23 24 25 26 27 28 29 30 31 32 33 34 35 36 37 38 39 40 41 42 43 44 45 46 47 48 49 50
424
ASUS43 KBIS 231310
RWRBIS

NWR BROADCAST TEXT
NATIONAL WEATHER SERVICE BISMARCK ND
800 AM CDT SAT JUL 23 2016

NOTE: "FAIR" INDICATES FEW OR NO CLOUDS BELOW 12,000 FEET WITH NO
SIGNIFICANT WEATHER AND/OR OBSTRUCTIONS TO VISIBILITY.


CITY           SKY/WX    TMP DP  RH WIND       PRES   REMARKS
WILLISTON      CLOUDY    67  63  87 S5        29.83R
MINOT          TSTM      67  64  90 SE10      29.82F
MINOT AFB      CLOUDY    65  64  95 S13       29.79S
BISMARCK       TSTM      66  65  96 VRB5      29.79R
DICKINSON      MOSUNNY   65  61  87 E6        29.80F
GARRISON         N/A     65  64  97 E16       29.80F
HETTINGER ARPT CLOUDY    68  61  78 SE5       29.82R
JAMESTOWN      MOSUNNY   72  67  84 E6        29.79F
BEACH          FAIR      63  63 100 NW6       29.90R
CARRINGTON     FAIR      68  66  94 N8        29.87R
HAZEN          CLOUDY    64  64 100 NE8       29.84F
MANDAN         CLOUDY    66  64  94 SE13      29.78S FOG
OAKES            N/A    N/A N/A N/A MISG        N/A
WATFORD CITY     N/A    N/A N/A N/A MISG        N/A
$$

CITY           SKY/WX    TMP DP  RH WIND       PRES   REMARKS
GRAND FORKS    CLOUDY    69  65  86 CALM      29.85R
GRAND FORKS AF CLOUDY    70  64  83 E3        29.84S
DEVILS LAKE    CLOUDY    68  65  90 W13       29.90R
FARGO          CLOUDY    74  62  66 SE12      29.81F
CAVALIER       LGT RAIN  64  63  94 SE3       29.87R
GRAFTON        DRIZZLE   66  66 100 CALM      29.87R
GWINNER        FAIR      73  70  88 E7        29.81F
LANGDON        DRIZZLE   64  64 100 SE6G13    29.88R
ROLLA          LGT RAIN  64  64 100 S5        29.90R
$$

CITY           SKY/WX    TMP DP  RH WIND       PRES   REMARKS
ABERDEEN       CLOUDY    75  71  87 SE9       29.79S
MOBRIDGE       CLOUDY    75  68  78 N8G21     29.67F
BUFFALO          N/A     70  62  76 W16       29.76R
RAPID CITY     SUNNY     69  59  70 E3        29.84R
GLASGOW        CLOUDY    63  52  67 W18G28    29.87R
SIDNEY         SUNNY     68  62  81 W9        29.84R
WOLF POINT     CLOUDY    67  57  70 SW13      29.86R
GLENDIVE       SUNNY     66  62  87 W9        29.88R
MILES CITY     PTSUNNY   68  50  52 W15       29.93R
BAKER          SUNNY     64  61  90 W14       29.87R
$$

CITY           SKY/WX    TMP DP  RH WIND       PRES   REMARKS
BILLINGS       MOSUNNY   65  44  46 SW7       30.04R
GREAT FALLS    CLEAR     58  42  55 S9        30.04R
REGINA         LGT RAIN  66  64  94 S17G23    29.68F
ESTEVAN        PTSUNNY   68  63  83 S8        29.79S
$$





USA.gov is the U.S. government's official web portal to all federal, state and local government web resources and services.